Location: Arran
(51.9410°N, 101.7372°W)
Time: 13:04:54
(UTC+00:00)

NOAA 15 - Visible Passes

Search period start: 01 December 2023 00:00
Search period end: 11 December 2023 00:00
Orbit: 796 x 811 km, 98.6° (Epoch: 01 December)

Date Brightness Start Highest point End Pass type
(mag) Time Alt. Az. Time Alt. Az. Time Alt. Az.
01 Dec 4.5 01:02:42 10° SSE 01:07:55 64° ENE 01:13:11 10° N visible
01 Dec 6.7 02:43:57 10° SW 02:48:08 23° W 02:52:21 10° NW visible
01 Dec 7.4 13:12:58 10° NE 13:16:08 16° E 13:19:17 10° ESE visible
02 Dec 4.9 00:37:31 10° SE 00:42:28 42° ENE 00:47:27 10° N visible
02 Dec 6.0 02:17:27 10° SSW 02:22:19 36° W 02:27:12 10° NNW visible
03 Dec 5.4 00:12:37 10° ESE 00:17:06 29° ENE 00:21:35 10° N visible
03 Dec 5.2 01:51:23 10° S 01:56:35 56° W 02:01:49 10° NNW visible
03 Dec 5.8 23:48:04 10° E 23:51:49 20° NE 23:55:33 10° N visible
04 Dec 4.5 01:25:38 10° SSE 01:30:57 87° WSW 01:36:18 10° NNW visible
04 Dec 7.2 03:08:23 10° WSW 03:11:30 16° W 03:14:37 10° NW visible
04 Dec 7.1 13:35:16 10° NE 13:39:29 24° E 13:43:40 10° SE visible
04 Dec 6.2 23:24:01 10° ENE 23:26:37 14° NE 23:29:13 10° NNE visible
05 Dec 4.5 01:00:11 10° SSE 01:05:24 62° ENE 01:10:38 10° N visible
05 Dec 6.6 02:41:19 10° SW 02:45:35 24° W 02:49:51 10° NW visible
05 Dec 7.5 13:10:33 10° NE 13:13:33 15° E 13:16:32 10° ESE visible
06 Dec 5.0 00:35:01 10° SE 00:39:57 41° ENE 00:44:53 10° N visible
06 Dec 5.9 02:14:52 10° SSW 02:19:45 37° W 02:24:41 10° NNW visible
07 Dec 5.4 00:10:11 10° ESE 00:14:35 28° ENE 00:19:00 10° N visible
07 Dec 5.1 01:48:49 10° S 01:54:02 59° WSW 01:59:16 10° NNW visible
07 Dec 5.9 23:45:40 10° E 23:49:18 19° NE 23:52:56 10° N visible
08 Dec 4.5 01:23:05 10° SSE 01:28:24 90° E 01:33:44 10° NNW visible
08 Dec 7.2 03:05:40 10° SW 03:08:54 16° W 03:12:10 10° NW visible
08 Dec 7.2 13:32:46 10° NE 13:36:54 23° E 13:40:59 10° SE visible
08 Dec 6.2 23:21:40 10° ENE 23:24:06 13° NE 23:26:33 10° NNE visible
09 Dec 4.6 00:57:41 10° SSE 01:02:52 59° ENE 01:08:04 10° N visible
09 Dec 6.6 02:38:39 10° SSW 02:43:00 25° W 02:47:21 10° NW visible
09 Dec 7.5 13:08:08 10° NE 13:10:57 14° E 13:13:46 10° ESE visible
10 Dec 5.0 00:32:32 10° SE 00:37:25 39° ENE 00:42:17 10° N visible
10 Dec 5.8 02:12:15 10° SSW 02:17:11 39° W 02:22:09 10° NNW visible
